SR1WXW Weather Reports


Display with metric or nautical units.
time (UTC)temp
F
wind
direction
speed
MPH
gust
MPH
rain 1hr
in
rain 24hr
in
rain mn
in
humidity
%
barometer
mb
20210507173312 44 292 6.0 7.0 0.00 0.00 0.00 73 1005.9
20210507172812 44 270 3.0 5.0 0.00 0.00 0.00 74 1005.8
20210507172312 44 270 5.0 7.0 0.00 0.00 0.00 75 1005.7
20210507171812 44 270 3.0 8.0 0.00 0.00 0.00 75 1005.7
20210507171312 44 270 4.0 5.0 0.00 0.00 0.00 75 1005.7
20210507170812 44 270 4.0 6.0 0.00 0.00 0.00 75 1005.7
20210507170312 44 270 5.0 6.0 0.00 0.00 0.00 75 1005.6
20210507165812 44 292 2.0 6.0 0.00 0.00 0.00 74 1005.6
20210507165312 43 270 2.0 5.0 0.00 0.00 0.00 74 1005.4
20210507164812 43 270 4.0 12.0 0.00 0.00 0.00 73 1005.4
20210507164312 44 270 3.0 5.0 0.00 0.00 0.00 72 1005.4
20210507163812 44 270 4.0 12.0 0.00 0.00 0.00 72 1005.2
20210507163312 44 270 4.0 9.0 0.00 0.00 0.00 72 1005.2
20210507162812 44 270 3.0 11.0 0.00 0.00 0.00 72 1005.1
20210507162312 45 292 9.0 9.0 0.00 0.00 0.00 71 1005.2
20210507161812 45 270 8.0 9.0 0.00 0.00 0.00 71 1005.1
20210507161312 45 247 9.0 9.0 0.00 0.00 0.00 71 1005.0
20210507160812 46 270 6.0 12.0 0.00 0.00 0.00 69 1005.0
20210507160312 46 270 6.0 8.0 0.00 0.00 0.00 67 1004.7
20210507155812 46 270 2.0 4.0 0.00 0.00 0.00 67 1004.6
20210507155312 46 270 2.0 6.0 0.00 0.00 0.00 67 1004.6
20210507154812 46 270 8.0 8.0 0.00 0.00 0.00 67 1004.4
20210507154312 46 270 4.0 9.0 0.00 0.00 0.00 66 1004.4
20210507153812 46 292 5.0 8.0 0.00 0.00 0.00 64 1004.3
20210507153312 47 270 3.0 7.0 0.00 0.00 0.00 62 1004.2
20210507152812 48 247 7.0 12.0 0.00 0.00 0.00 58 1004.1
20210507152312 48 292 1.0 7.0 0.00 0.00 0.00 55 1003.9
20210507151812 49 292 2.0 9.0 0.00 0.00 0.00 54 1003.8
20210507151312 50 292 9.0 9.0 0.00 0.00 0.00 53 1003.8
20210507150812 51 270 3.0 13.0 0.00 0.00 0.00 53 1003.7
20210507150312 51 270 6.0 6.0 0.00 0.00 0.00 54 1003.6
20210507145812 50 270 2.0 5.0 0.00 0.00 0.00 54 1003.5
20210507145312 50 270 0.0 10.0 0.00 0.00 0.00 54 1003.5
20210507144812 51 270 4.0 6.0 0.00 0.00 0.00 55 1003.5
20210507144312 50 270 0.0 6.0 0.00 0.00 0.00 56 1003.6
20210507143812 50 247 3.0 7.0 0.00 0.00 0.00 56 1003.5
20210507143312 50 292 4.0 10.0 0.00 0.00 0.00 55 1003.5
20210507142812 49 270 2.0 7.0 0.00 0.00 0.00 57 1003.6
20210507142312 49 270 5.0 9.0 0.00 0.00 0.00 57 1003.5
20210507141812 49 315 7.0 7.0 0.00 0.00 0.00 58 1003.4
20210507141312 48 270 3.0 8.0 0.00 0.00 0.00 58 1003.4
20210507140812 48 270 1.0 9.0 0.00 0.00 0.00 58 1003.5
20210507140312 48 315 6.0 10.0 0.00 0.00 0.00 59 1003.3
20210507135815 48 270 6.0 9.0 0.00 0.00 0.00 58 1003.3
20210507135312 49 292 6.0 14.0 0.00 0.00 0.00 56 1003.3
20210507134812 50 270 7.0 12.0 0.00 0.00 0.00 53 1003.2
20210507134312 50 270 2.0 5.0 0.00 0.00 0.00 53 1003.0
20210507133812 50 270 2.0 9.0 0.00 0.00 0.00 55 1003.1
20210507133312 49 270 3.0 8.0 0.00 0.00 0.00 58 1003.0
20210507132812 49 292 8.0 8.0 0.00 0.00 0.00 59 1003.1
20210507132312 48 270 3.0 4.0 0.00 0.00 0.00 59 1003.1
20210507131812 48 270 0.0 11.0 0.00 0.00 0.00 59 1003.0
20210507131312 49 270 3.0 6.0 0.00 0.00 0.00 56 1003.0
20210507130812 49 270 2.0 10.0 0.00 0.00 0.00 55 1002.9
20210507130312 49 292 6.0 8.0 0.00 0.00 0.00 57 1002.9
20210507125812 49 270 2.0 7.0 0.00 0.00 0.00 57 1002.8
20210507125312 48 270 4.0 9.0 0.00 0.00 0.00 56 1002.8
20210507124812 48 247 1.0 7.0 0.00 0.00 0.00 58 1002.7
20210507124313 48 270 2.0 9.0 0.00 0.00 0.00 58 1002.8
20210507123812 48 315 6.0 10.0 0.00 0.00 0.00 58 1002.7
20210507123313 49 337 3.0 11.0 0.00 0.00 0.00 56 1002.7
20210507122813 49 270 3.0 10.0 0.00 0.00 0.00 55 1002.6
20210507122313 49 270 2.0 6.0 0.00 0.00 0.00 56 1002.5
20210507121813 49 270 5.0 5.0 0.00 0.00 0.00 57 1002.5
20210507121313 49 270 2.0 8.0 0.00 0.00 0.00 56 1002.4
20210507120813 49 270 5.0 10.0 0.00 0.00 0.00 57 1002.3
20210507120313 49 292 2.0 8.0 0.00 0.00 0.00 56 1002.2
20210507115813 49 270 2.0 3.0 0.00 0.00 0.00 56 1002.2
20210507115313 49 270 0.0 10.0 0.00 0.00 0.00 55 1002.2
20210507114813 49 292 7.0 8.0 0.00 0.00 0.00 55 1002.1
20210507114313 49 292 2.0 8.0 0.00 0.00 0.00 55 1002.2
20210507113813 49 292 4.0 10.0 0.00 0.00 0.00 56 1002.1
20210507113313 49 270 4.0 7.0 0.00 0.00 0.00 57 1002.1
20210507112813 49 292 5.0 6.0 0.00 0.00 0.00 58 1002.0
20210507112313 49 270 2.0 6.0 0.00 0.00 0.00 58 1002.0
20210507111813 48 270 4.0 10.0 0.00 0.00 0.00 58 1002.0
20210507111313 48 292 10.0 10.0 0.00 0.00 0.00 58 1002.0
20210507110813 49 270 4.0 8.0 0.00 0.00 0.00 58 1001.9
20210507110313 49 270 4.0 10.0 0.00 0.00 0.00 57 1001.9
20210507105813 50 292 5.0 9.0 0.00 0.00 0.00 57 1001.6
20210507105313 50 270 2.0 12.0 0.00 0.00 0.00 57 1001.6
20210507104813 50 292 6.0 8.0 0.00 0.00 0.00 58 1001.6
20210507104313 50 270 2.0 5.0 0.00 0.00 0.00 57 1001.6
20210507103813 50 270 2.0 8.0 0.00 0.00 0.00 57 1001.5
20210507103313 50 292 4.0 4.0 0.00 0.00 0.00 57 1001.5
20210507102813 50 270 3.0 7.0 0.00 0.00 0.00 56 1001.5
20210507102313 50 292 3.0 7.0 0.00 0.00 0.00 56 1001.5
20210507101813 50 270 4.0 7.0 0.00 0.00 0.00 55 1001.5
20210507101313 51 270 3.0 8.0 0.00 0.00 0.00 56 1001.4
20210507100813 51 270 3.0 10.0 0.00 0.00 0.00 55 1001.5
20210507100313 51 270 3.0 8.0 0.00 0.00 0.00 57 1001.4
20210507095813 50 270 8.0 10.0 0.00 0.00 0.00 56 1001.4
20210507095313 51 270 5.0 8.0 0.00 0.00 0.00 55 1001.4
20210507094813 51 270 3.0 13.0 0.00 0.00 0.00 55 1001.3
20210507094313 51 270 6.0 7.0 0.00 0.00 0.00 55 1001.2
20210507093813 52 315 3.0 10.0 0.00 0.00 0.00 55 1001.2
20210507093313 52 315 4.0 10.0 0.00 0.00 0.00 54 1001.2
20210507092813 53 315 10.0 10.0 0.00 0.00 0.00 55 1001.1
20210507092313 52 270 3.0 5.0 0.00 0.00 0.00 56 1001.1
20210507091813 52 247 2.0 10.0 0.00 0.00 0.00 57 1001.2
20210507091313 52 157 1.0 4.0 0.00 0.00 0.00 57 1001.1
20210507090813 51 315 1.0 4.0 0.00 0.00 0.00 57 1001.1
20210507090313 51 270 2.0 6.0 0.00 0.00 0.00 57 1001.1
20210507085813 51 315 3.0 4.0 0.00 0.00 0.00 56 1001.1
20210507085313 51 292 3.0 5.0 0.00 0.00 0.00 55 1001.0
20210507084813 52 270 2.0 6.0 0.00 0.00 0.00 53 1001.0
20210507084313 54 292 4.0 7.0 0.00 0.00 0.00 50 1001.0
20210507083813 55 315 2.0 7.0 0.00 0.00 0.00 51 1000.9
20210507083313 56 247 0.0 5.0 0.00 0.00 0.00 51 1001.0
20210507082813 56 292 4.0 8.0 0.00 0.00 0.00 51 1000.8
20210507082313 56 337 0.0 6.0 0.00 0.00 0.00 52 1000.8
20210507081813 56 292 2.0 8.0 0.00 0.00 0.00 51 1000.9
20210507081313 57 292 0.0 4.0 0.00 0.00 0.00 51 1000.9
20210507080813 57 0 0.0 5.0 0.00 0.00 0.00 52 1000.9
20210507080313 57 315 2.0 8.0 0.00 0.00 0.00 53 1000.9
20210507075813 56 270 0.0 9.0 0.00 0.00 0.00 54 1000.8
20210507075313 55 315 9.0 9.0 0.00 0.00 0.00 56 1000.8
20210507074813 54 292 5.0 7.0 0.00 0.00 0.00 59 1000.7
20210507074313 51 270 3.0 5.0 0.00 0.00 0.00 62 1000.7
20210507073813 49 292 0.0 5.0 0.00 0.00 0.00 64 1000.8
20210507073313 48 270 1.0 5.0 0.00 0.00 0.00 61 1000.6
20210507072813 48 292 5.0 6.0 0.00 0.00 0.00 62 1000.7
20210507072313 49 337 2.0 2.0 0.00 0.00 0.00 61 1000.7
20210507071813 49 270 2.0 4.0 0.00 0.00 0.00 61 1000.6
20210507071313 49 270 2.0 6.0 0.00 0.00 0.00 61 1000.6
20210507070813 49 270 2.0 6.0 0.00 0.00 0.00 63 1000.6
20210507070314 48 270 0.0 4.0 0.00 0.00 0.00 63 1000.5
20210507065813 47 247 1.0 4.0 0.00 0.00 0.00 63 1000.5
20210507065313 47 270 0.0 4.0 0.00 0.00 0.00 65 1000.5
20210507064813 47 22 0.0 4.0 0.00 0.00 0.00 66 1000.5
20210507064313 46 270 0.0 3.0 0.00 0.00 0.00 67 1000.5
20210507063813 46 270 1.0 3.0 0.00 0.00 0.00 67 1000.5
20210507063313 46 270 0.0 2.0 0.00 0.00 0.00 67 1000.5
20210507062813 46 270 0.0 2.0 0.00 0.00 0.00 67 1000.4
20210507062313 47 270 1.0 4.0 0.00 0.00 0.00 66 1000.4
20210507061813 48 292 2.0 5.0 0.00 0.00 0.00 64 1000.3
20210507061313 49 315 2.0 5.0 0.00 0.00 0.00 64 1000.3
20210507060813 50 292 3.0 4.0 0.00 0.00 0.00 64 1000.2
20210507060313 50 270 0.0 2.0 0.00 0.00 0.00 65 1000.2
20210507055813 50 270 0.0 4.0 0.00 0.00 0.00 65 1000.1
20210507055313 50 270 0.0 1.0 0.00 0.00 0.00 66 1000.0
20210507054813 50 292 0.0 2.0 0.00 0.00 0.00 66 1000.0
20210507054313 50 0 0.0 2.0 0.00 0.00 0.00 67 1000.0
20210507053813 49 315 0.0 0.0 0.00 0.00 0.00 69 999.9
20210507053313 48 22 0.0 1.0 0.00 0.00 0.00 71 999.9
20210507052813 47 22 0.0 0.0 0.00 0.00 0.00 74 999.8
20210507052313 46 45 0.0 0.0 0.00 0.00 0.00 76 999.9
20210507051814 44 22 0.0 0.0 0.00 0.00 0.00 78 999.8
20210507051314 43 45 0.0 0.0 0.00 0.00 0.00 79 999.8
20210507050814 42 0 0.0 0.0 0.00 0.00 0.00 80 999.8
20210507050314 41 292 0.0 0.0 0.00 0.00 0.00 83 999.8
20210507045814 40 315 0.0 0.0 0.00 0.00 0.00 84 999.6
20210507045314 38 270 0.0 0.0 0.00 0.00 0.00 84 999.5
20210507044814 37 270 0.0 0.0 0.00 0.00 0.00 84 999.6
20210507044314 36 292 0.0 0.0 0.00 0.00 0.00 83 999.5
20210507043814 35 292 0.0 0.0 0.00 0.00 0.00 82 999.6
20210507043314 35 292 0.0 0.0 0.00 0.00 0.00 82 999.5
20210507042814 35 292 0.0 1.0 0.00 0.00 0.00 82 999.5
20210507042314 35 292 0.0 0.0 0.00 0.00 0.00 81 999.4
20210507041814 35 292 0.0 0.0 0.00 0.00 0.00 81 999.4
20210507041314 35 270 0.0 0.0 0.00 0.00 0.00 81 999.2
20210507040814 34 22 0.0 0.0 0.00 0.00 0.00 81 999.2
20210507040314 34 45 0.0 0.0 0.00 0.00 0.00 81 999.1
20210507035814 34 45 0.0 0.0 0.00 0.00 0.00 80 999.1
20210507035314 34 22 0.0 0.0 0.00 0.00 0.00 80 999.1
20210507034814 34 0 0.0 0.0 0.00 0.00 0.00 80 999.0
20210507034314 34 292 0.0 0.0 0.00 0.00 0.00 80 999.2
20210507033814 34 292 0.0 0.0 0.00 0.00 0.00 80 999.2
20210507033314 34 292 0.0 0.0 0.00 0.00 0.00 80 999.1
20210507032814 35 292 0.0 0.0 0.00 0.00 0.00 80 999.1
20210507032314 35 292 0.0 0.0 0.00 0.00 0.00 80 998.9
20210507031814 35 292 0.0 0.0 0.00 0.00 0.00 80 999.0
20210507031314 35 292 0.0 0.0 0.00 0.00 0.00 80 999.0
20210507030814 35 292 0.0 0.0 0.00 0.00 0.00 80 999.1
20210507030314 35 292 0.0 0.0 0.00 0.00 0.00 80 999.0
20210507025814 35 292 0.0 0.0 0.00 0.00 0.00 79 999.0
20210507025314 35 292 0.0 0.0 0.00 0.00 0.00 79 999.1
20210507024814 35 315 0.0 0.0 0.00 0.00 0.00 78 999.2
20210507024314 35 292 0.0 0.0 0.00 0.00 0.00 78 999.2
20210507023814 35 292 0.0 0.0 0.00 0.00 0.00 79 999.2
20210507023314 35 292 0.0 0.0 0.00 0.00 0.00 79 999.2
20210507022814 36 292 0.0 0.0 0.00 0.00 0.00 78 999.2
20210507022314 36 45 0.0 0.0 0.00 0.00 0.00 78 999.3
20210507021814 36 45 0.0 0.0 0.00 0.00 0.00 78 999.3
20210507021314 36 45 0.0 0.0 0.00 0.00 0.00 78 999.3
20210507020814 36 45 0.0 0.0 0.00 0.00 0.00 78 999.3
20210507020314 37 45 0.0 0.0 0.00 0.00 0.00 78 999.3
20210507015814 37 67 0.0 0.0 0.00 0.00 0.00 78 999.2
20210507015314 37 112 0.0 0.0 0.00 0.00 0.00 78 999.1
20210507014814 37 112 0.0 0.0 0.00 0.00 0.00 77 999.1
20210507014314 37 67 0.0 0.0 0.00 0.00 0.00 77 999.1
20210507013814 37 45 0.0 0.0 0.00 0.00 0.00 77 999.2
20210507013314 37 135 0.0 0.0 0.00 0.00 0.00 77 999.2
20210507012814 37 135 0.0 0.0 0.00 0.00 0.00 77 999.2
20210507012314 37 157 0.0 0.0 0.00 0.00 0.00 77 999.3
20210507011814 37 157 0.0 0.0 0.00 0.00 0.00 76 999.3
20210507011314 37 135 0.0 0.0 0.00 0.00 0.00 76 999.3
20210507010814 37 135 0.0 0.0 0.00 0.00 0.00 75 999.3
20210507010314 37 90 0.0 0.0 0.00 0.00 0.00 75 999.3
20210507005814 37 90 0.0 0.0 0.00 0.00 0.00 75 999.4
20210507005314 37 90 0.0 0.0 0.00 0.00 0.00 75 999.4
20210507004814 37 112 0.0 0.0 0.00 0.00 0.00 75 999.4
20210507004314 37 90 0.0 0.0 0.00 0.00 0.00 74 999.4
20210507003814 37 22 0.0 0.0 0.00 0.00 0.00 74 999.5
20210507003314 37 22 0.0 0.0 0.00 0.00 0.00 74 999.5
20210507002814 37 22 0.0 0.0 0.00 0.00 0.00 74 999.5
20210507002314 37 0 0.0 0.0 0.00 0.00 0.00 73 999.6
20210507001814 37 0 0.0 0.0 0.00 0.00 0.00 73 999.7
20210507001314 38 0 0.0 0.0 0.00 0.00 0.00 73 999.6
20210507000814 38 22 0.0 0.0 0.00 0.00 0.00 73 999.8
20210507000315 38 22 0.0 0.0 0.00 0.00 0.00 73 999.7
20210506235814 38 0 0.0 0.0 0.00 0.00 0.00 73 999.7
20210506235314 38 22 0.0 0.0 0.00 0.00 0.00 73 999.8
20210506234814 38 292 0.0 0.0 0.00 0.00 0.00 73 999.8
20210506234314 38 292 0.0 0.0 0.00 0.00 0.00 73 999.8
20210506233814 38 292 0.0 0.0 0.00 0.00 0.00 73 999.7
20210506233314 38 270 0.0 0.0 0.00 0.00 0.00 73 999.8
20210506232814 38 247 0.0 0.0 0.00 0.00 0.00 73 999.8
20210506232314 38 247 0.0 0.0 0.00 0.00 0.00 72 999.8
20210506231814 38 247 0.0 0.0 0.00 0.00 0.00 72 999.8
20210506231314 38 247 0.0 0.0 0.00 0.00 0.00 73 999.8
20210506230814 38 247 0.0 0.0 0.00 0.00 0.00 73 999.8
20210506230314 38 247 0.0 0.0 0.00 0.00 0.00 73 999.9
20210506225814 38 202 0.0 0.0 0.00 0.00 0.00 73 999.9
20210506225314 38 180 0.0 0.0 0.00 0.00 0.00 73 999.9
20210506224814 38 180 0.0 0.0 0.00 0.00 0.00 73 999.9
20210506224314 38 180 0.0 0.0 0.00 0.00 0.00 73 999.9
20210506223814 38 180 0.0 0.0 0.00 0.00 0.00 73 999.9
20210506223314 38 157 0.0 0.0 0.00 0.00 0.00 73 999.9
20210506222814 38 157 0.0 0.0 0.00 0.00 0.00 73 1000.0
20210506222314 38 157 0.0 0.0 0.00 0.00 0.00 73 999.9
20210506221814 38 180 0.0 0.0 0.00 0.00 0.00 73 999.9
20210506221314 38 180 0.0 0.0 0.00 0.00 0.00 73 999.9
20210506220814 38 180 0.0 0.0 0.00 0.00 0.00 73 999.9
20210506220314 38 180 0.0 1.0 0.00 0.00 0.00 73 999.9
20210506215814 39 180 0.0 0.0 0.00 0.02 0.00 73 999.9
20210506215314 39 180 0.0 0.0 0.00 0.02 0.00 73 999.9
20210506214815 39 157 0.0 1.0 0.00 0.02 0.00 73 999.8
20210506214315 39 180 0.0 0.0 0.00 0.02 0.00 72 999.9
20210506213815 39 157 0.0 1.0 0.00 0.02 0.00 72 999.8
20210506213315 39 157 0.0 0.0 0.00 0.02 0.00 73 999.9
20210506212815 39 157 0.0 0.0 0.00 0.02 0.00 72 999.8
20210506212315 39 157 0.0 0.0 0.00 0.02 0.00 72 999.8
20210506211815 39 157 0.0 0.0 0.00 0.02 0.00 72 999.7
20210506211315 39 157 0.0 0.0 0.00 0.02 0.00 71 999.9
20210506210815 39 157 0.0 0.0 0.00 0.02 0.00 71 999.8
20210506210315 39 157 0.0 0.0 0.00 0.02 0.00 71 999.8
20210506205815 39 157 0.0 0.0 0.00 0.06 0.00 70 999.8
20210506205315 39 157 0.0 0.0 0.00 0.06 0.00 70 999.7
20210506204815 39 157 0.0 1.0 0.00 0.06 0.00 70 999.8
20210506204315 39 180 0.0 1.0 0.00 0.06 0.00 69 999.8
20210506203815 39 157 0.0 0.0 0.00 0.06 0.00 67 999.7
20210506203315 40 202 0.0 0.0 0.00 0.06 0.00 67 999.7
20210506202815 40 225 0.0 0.0 0.00 0.06 0.00 67 999.8
20210506202315 40 225 0.0 0.0 0.00 0.06 0.00 66 999.8
20210506201815 40 225 0.0 0.0 0.00 0.06 0.00 66 999.8
20210506201315 40 225 0.0 0.0 0.00 0.06 0.00 66 999.8
20210506200815 40 225 0.0 0.0 0.00 0.06 0.00 66 999.8
20210506200315 41 225 0.0 0.0 0.00 0.06 0.00 66 999.8
20210506195815 41 225 0.0 1.0 0.00 0.06 0.00 66 999.8
20210506195315 41 225 0.0 0.0 0.00 0.06 0.00 66 999.8
20210506194815 41 225 0.0 0.0 0.00 0.06 0.00 66 999.9
20210506194315 41 202 0.0 0.0 0.00 0.06 0.00 67 999.9
20210506193815 41 180 0.0 2.0 0.00 0.06 0.00 67 999.8
20210506193315 41 270 0.0 1.0 0.00 0.06 0.00 67 999.8
20210506192815 41 270 0.0 5.0 0.00 0.06 0.00 66 999.8
20210506192315 41 270 5.0 5.0 0.00 0.06 0.00 65 999.7
20210506191815 42 202 0.0 1.0 0.00 0.06 0.00 65 999.5
20210506191315 42 202 1.0 2.0 0.00 0.06 0.00 65 999.5
20210506190815 42 180 1.0 2.0 0.00 0.06 0.00 65 999.4
20210506190315 42 202 2.0 2.0 0.00 0.06 0.00 64 999.4
20210506185815 42 202 1.0 1.0 0.00 0.06 0.00 64 999.5
20210506185315 43 180 1.0 2.0 0.00 0.06 0.00 64 999.5
20210506184815 43 180 0.0 2.0 0.00 0.06 0.00 63 999.4
20210506184315 43 180 1.0 2.0 0.00 0.06 0.00 63 999.4
20210506183815 43 202 2.0 3.0 0.00 0.06 0.00 63 999.5
20210506183315 44 202 2.0 4.0 0.00 0.06 0.00 63 999.4
20210506182815 44 180 4.0 4.0 0.00 0.06 0.00 63 999.4
20210506182315 44 202 0.0 3.0 0.00 0.06 0.00 62 999.4
20210506181815 45 180 2.0 3.0 0.00 0.06 0.00 62 999.4
20210506181315 45 202 2.0 3.0 0.00 0.06 0.00 61 999.4
20210506180815 45 180 1.0 2.0 0.00 0.06 0.00 61 999.3
20210506180315 46 180 2.0 5.0 0.00 0.06 0.00 60 999.3
20210506175815 46 180 2.0 6.0 0.00 0.06 0.00 59 999.3
20210506175315 46 202 2.0 6.0 0.00 0.06 0.00 59 999.3
20210506174815 46 180 2.0 5.0 0.00 0.06 0.00 58 999.3
20210506174315 46 180 4.0 4.0 0.00 0.06 0.00 57 999.2
20210506173815 47 202 3.0 4.0 0.00 0.06 0.00 57 999.3